Weather in Mutyn

Ukraine / Sumi District     51°25′25″N   33°29′25″E
temp.,
°C
wind,
m/s
gust,
m/s
humid.,
%
clouds,
%
prec.,
mm/h
press.,
hPa
HPBL,
m
27 october, wed
wed2700:00+2ssw4127220 0.0 1027259
03:00+2ssw513725 0.0 1026267
06:00+2ssw513795 0.0 1024282
09:00+3sw513810 0.0 1024423
12:00+8sw710680 0.0 1023687
15:00+9wsw675890 0.0 1022783
18:00+6w377475 0.0 1023119
21:00+6w36786 0.0 1023143
28 october, thu
thu2800:00+4w349361 0.0 102363
03:00+4wsw3894100 0.0 1022163
06:00+5sw41188100 0.1 1021285
09:00+7wsw6128589 0.6 1020438
12:00+9w51182100 0.2 1020536
15:00+8wnw51088100 0.8 1020451
18:00+8wnw499145 0.0 1021310
21:00+8wnw399511 0.0 1022247
29 october, fri
fri2900:00+6nnw38965 0.0 1024175
03:00+5nne35935 0.0 102675
06:00+4nne33905 0.0 102730
09:00+5ne24855 0.0 1029109
12:00+9ene22660 0.0 1029454
15:00+11ese12610 0.0 1029662
18:00+7ese11784 0.0 103010
21:00+6se22860 0.0 103120
30 october, sat
sat3000:00+5se33890 0.0 103136
03:00+4sse33910 0.0 103243
06:00+4sse34935 0.0 103253
09:00+5sse36905 0.0 1033163
12:00+10s46685 0.0 1032449
15:00+12s46595 0.0 1031703
18:00+8sse33785 0.0 103131
21:00+6sse33830 0.0 103245
31 october, sun
sun3100:00+5sse34840 0.0 103252
03:00+4sse33830 0.0 103240
05:00+4sse33850 0.0 103144
08:00+5se35790 0.0 1031122
11:00+10sse46610 0.0 1030439
14:00+12sse46580 0.0 1028724
17:00+8se35750 0.0 102767
20:00+6se49760 0.0 1027145